Weather History for KBBW - September, 2013

Change the Weather History Date:

Friday, September 20, 2013

  Actual Average Record
Temperature  
Mean Temperature 58 °F 60 °F  
Max Temperature 73 °F 75 °F 106 °F (1895)
Min Temperature 42 °F 46 °F 19 °F (1918)
Degree Days  
Heating Degree Days 7 6  
Month to date heating degree days 32 69  
Cooling Degree Days 0 1  
Month to date cooling degree days 120 56  
Year to date cooling degree days 806 752  
Growing Degree Days 8 (Base 50)    
Moisture  
Dew Point 44 °F    
Average Humidity 69    
Maximum Humidity 100    
Minimum Humidity 38    
Precipitation  
Precipitation 0.00 in 0.08 in 0.82 in (1961)
Sea Level Pressure  
Sea Level Pressure 30.09 in    
Wind  
Wind Speed 5 mph (NW)    
Max Wind Speed 14 mph    
Max Gust Speed 20 mph    
Visibility 10 miles    
Events      
T = Trace of Precipitation, MM = Missing Value Source: NWS Daily Summary

Daily Weather History Graph

Daily Weather History Graph

Search for Another Location

Airport or City:

Trip Planner

Search our weather history database for the weather conditions in past years. The results will help you decide how hot, cold, wet, or windy it might be!

Date:

Astronomy

Sep. 20, 2013 Rise Set
Actual Time 7:24 AM CDT 7:38 PM CDT
Civil Twilight 6:56 AM CDT 8:06 PM CDT
Nautical Twilight 6:24 AM CDT 8:38 PM CDT
Astronomical Twilight 5:50 AM CDT 9:11 PM CDT
Moon 8:11 PM CDT (9/20) 8:42 AM CDT (9/20)
Length of Visible Light 13h 09m
Length of Day
12h 14m
Full, 98% of the Moon is Illuminated
Sep 20
Full
Sep 26
Last Quarter
Oct 4
New
Oct 11
First Quarter
Oct 18
Full

Hourly Weather History & Observations

Time (CDT) Temp. Windchill Dew Point Humidity Pressure Visibility Wind Dir Wind Speed Gust Speed Precip Events Conditions
12:53 AM 46.9 °F - 45.0 °F 93% 30.13 in 10.0 mi North 5.8 mph - N/A   Clear
1:53 AM 46.0 °F 43.1 °F 44.1 °F 93% 30.15 in 10.0 mi North 5.8 mph - N/A   Clear
2:53 AM 44.1 °F - 42.1 °F 93% 30.14 in 10.0 mi Calm Calm - N/A   Clear
3:53 AM 46.0 °F 42.5 °F 43.0 °F 89% 30.13 in 10.0 mi NW 6.9 mph - N/A   Clear
4:53 AM 45.0 °F 41.2 °F 42.1 °F 90% 30.13 in 10.0 mi WNW 6.9 mph - N/A   Clear
5:53 AM 45.0 °F 42.6 °F 42.1 °F 90% 30.12 in 10.0 mi NW 4.6 mph - N/A   Clear
6:53 AM 44.1 °F 41.5 °F 39.9 °F 85% 30.14 in 10.0 mi NW 4.6 mph - N/A   Clear
7:53 AM 44.1 °F 41.5 °F 39.9 °F 85% 30.17 in 10.0 mi NW 4.6 mph - N/A   Clear
8:53 AM 50.0 °F - 42.1 °F 74% 30.16 in 10.0 mi WNW 5.8 mph - N/A   Clear
9:53 AM 55.9 °F - 43.0 °F 62% 30.15 in 10.0 mi NNW 5.8 mph - N/A   Clear
10:53 AM 59.0 °F - 44.1 °F 58% 30.15 in 10.0 mi North 8.1 mph - N/A   Clear
11:53 AM 63.0 °F - 44.1 °F 50% 30.13 in 10.0 mi NNW 8.1 mph - N/A   Clear
12:53 PM 64.9 °F - 44.1 °F 47% 30.11 in 10.0 mi WNW 10.4 mph - N/A   Clear
1:53 PM 66.9 °F - 44.1 °F 44% 30.08 in 10.0 mi West 9.2 mph 16.1 mph N/A   Clear
2:53 PM 70.0 °F - 44.1 °F 39% 30.05 in 10.0 mi NW 5.8 mph - N/A   Clear
3:53 PM 71.1 °F - 44.1 °F 38% 30.03 in 10.0 mi NW 6.9 mph - N/A   Clear
4:53 PM 72.0 °F - 44.1 °F 37% 30.01 in 10.0 mi NNW 6.9 mph - N/A   Clear
5:53 PM 72.0 °F - 44.1 °F 37% 29.99 in 10.0 mi NNW 6.9 mph - N/A   Clear
6:53 PM 70.0 °F - 46.9 °F 44% 29.99 in 10.0 mi Calm Calm - N/A   Clear
7:53 PM 57.9 °F - 53.1 °F 84% 30.01 in 10.0 mi NNE 4.6 mph - N/A   Clear
8:53 PM 53.1 °F - 50.0 °F 89% 30.01 in 10.0 mi Calm Calm - N/A   Clear
9:53 PM 50.0 °F - 48.9 °F 96% 30.01 in 10.0 mi Calm Calm - N/A   Clear
10:53 PM 48.0 °F - 46.9 °F 96% 30.03 in 10.0 mi Calm Calm - N/A   Clear
11:53 PM 46.0 °F - 46.0 °F 100% 30.03 in 10.0 mi Calm Calm - N/A   Clear